User: anonymous   Login
Location: Chiroubles
(46.1812°N, 4.6660°E)
Time: 11:49:33
(UTC+00:00)
Language:

Cosmos 468 Rocket - Orbit

View from above orbital plane
View from above orbital plane
View from above satellite
View from above satellite

Ground track
Ground track

The orbit data is extracted from the following two-line orbital elements,

1  5707U 71114B   20296.48115374 +.00000034 +00000-0 +19607-4 0  9999
2  5707 074.0286 349.1318 0023562 117.8558 242.4987 14.38911537558512
Epoch (UTC): 22 October 2020 11:32:51
Eccentricity: 0.0023562
inclination: 74.0286°
perigee height: 745 km
apogee height: 779 km
right ascension of ascending node: 349.1318°
argument of perigee: 117.8558°
revolutions per day: 14.38911537
mean anomaly at epoch: 242.4987°
orbit number at epoch: 55851

The dashed part of the orbit path shows where the satellite is in the earth's shadow,  

DLR